Weather History for Bluefield, WV

Change the Weather History Date:

Thursday, February 21, 2013

  Actual Average Record
Temperature  
Mean Temperature 32 °F 39 °F  
Max Temperature 45 °F 47 °F 65 °F (1996)
Min Temperature 18 °F 30 °F 1 °F (1963)
Degree Days  
Heating Degree Days 33 26  
Month to date heating degree days 641 595  
Since 1 July heating degree days 3217 3315  
Cooling Degree Days 0 0  
Month to date cooling degree days 0 0  
Year to date cooling degree days 1 0  
Moisture  
Dew Point 11 °F    
Average Humidity 47    
Maximum Humidity 68    
Minimum Humidity 25    
Precipitation  
Precipitation T in 0.10 in 1.29 in (1993)
Month to date precipitation 1.08 2.04  
Year to date precipitation 7.08 4.94  
Snow  
Snow 0.00 in - - ()
Month to date snowfall 11.9  
Since 1 July snowfall 40.4  
Snow Depth 0.00 in    
Sea Level Pressure  
Sea Level Pressure 30.19 in    
Wind  
Wind Speed 7 mph (West)    
Max Wind Speed 15 mph    
Max Gust Speed 24 mph    
Visibility 10 miles    
Events Rain    
T = Trace of Precipitation, MM = Missing Value Source: NWS Daily Summary

Daily Weather History Graph

Daily Weather History Graph

Search for Another Location

Airport:

Trip Planner

Search our weather history database for the weather conditions in past years. The results will help you decide how hot, cold, wet, or windy it might be!

Date:

Astronomy

Feb. 21, 2013 Rise Set
Actual Time 7:06 AM EST 6:11 PM EST
Civil Twilight 6:39 AM EST 6:37 PM EST
Nautical Twilight 6:09 AM EST 7:07 PM EST
Astronomical Twilight 5:39 AM EST 7:38 PM EST
Moon 2:27 PM EST (2/21) 4:06 AM EST (2/21)
Length of Visible Light 11h 57m
Length of Day
11h 04m
Waxing Gibbous, 83% of the Moon is Illuminated
Feb 21
Waxing Gibbous
Feb 25
Full
Mar 4
Last Quarter
Mar 11
New
Mar 19
First Quarter

Hourly Weather History & Observations

Time (EST) Temp. Windchill Dew Point Humidity Pressure Visibility Wind Dir Wind Speed Gust Speed Precip Events Conditions
12:52 AM 21.9 °F 13.4 °F 10.9 °F 63% 30.17 in 10.0 mi WNW 6.9 mph - N/A   Clear
1:52 AM 21.0 °F 12.4 °F 10.9 °F 65% 30.17 in 10.0 mi West 6.9 mph - N/A   Clear
2:52 AM 21.0 °F 14.6 °F 10.9 °F 65% 30.17 in 10.0 mi West 4.6 mph - N/A   Clear
3:52 AM 19.9 °F 11.1 °F 10.9 °F 68% 30.17 in 10.0 mi West 6.9 mph - N/A   Clear
4:52 AM 19.0 °F 12.3 °F 10.0 °F 68% 30.18 in 10.0 mi West 4.6 mph - N/A   Clear
5:52 AM 18.0 °F 8.7 °F 10.0 °F 71% 30.21 in 10.0 mi West 6.9 mph - N/A   Clear
6:52 AM 18.0 °F 8.7 °F 10.9 °F 74% 30.23 in 10.0 mi West 6.9 mph - N/A   Clear
7:52 AM 19.0 °F 9.0 °F 10.9 °F 71% 30.24 in 10.0 mi West 8.1 mph - N/A   Clear
8:52 AM 21.0 °F 11.4 °F 12.0 °F 68% 30.25 in 10.0 mi WNW 8.1 mph - N/A   Clear
9:52 AM 25.0 °F 16.3 °F 12.0 °F 58% 30.25 in 10.0 mi West 8.1 mph - N/A   Clear
10:52 AM 28.9 °F 19.8 °F 10.9 °F 47% 30.25 in 10.0 mi West 10.4 mph - N/A   Clear
11:52 AM 33.1 °F 26.9 °F 12.0 °F 42% 30.22 in 10.0 mi West 6.9 mph - N/A   Clear
12:52 PM 37.0 °F 32.4 °F 12.0 °F 36% 30.20 in 10.0 mi WSW 5.8 mph - N/A   Clear
1:52 PM 42.1 °F 39.2 °F 12.0 °F 29% 30.15 in 10.0 mi Variable 4.6 mph - N/A   Clear
2:52 PM 44.1 °F 42.5 °F 10.9 °F 26% 30.15 in 10.0 mi Variable 3.5 mph - N/A   Clear
3:52 PM 45.0 °F 42.6 °F 10.9 °F 25% 30.14 in 10.0 mi West 4.6 mph - N/A   Clear
4:52 PM 43.0 °F 41.3 °F 10.0 °F 26% 30.16 in 10.0 mi West 3.5 mph - N/A   Clear
5:52 PM 42.1 °F 39.2 °F 10.0 °F 27% 30.17 in 10.0 mi NNE 4.6 mph - N/A   Clear
6:52 PM 39.9 °F 35.1 °F 10.9 °F 31% 30.18 in 10.0 mi ENE 6.9 mph - N/A   Clear
7:52 PM 37.0 °F 30.4 °F 14.0 °F 39% 30.17 in 10.0 mi East 9.2 mph - N/A   Clear
8:52 PM 37.0 °F 31.6 °F 12.9 °F 37% 30.17 in 10.0 mi ENE 6.9 mph - N/A   Clear
9:52 PM 37.0 °F 33.3 °F 12.9 °F 37% 30.15 in 10.0 mi Variable 4.6 mph - N/A   Clear
10:52 PM 39.9 °F 35.8 °F 12.0 °F 32% 30.17 in 10.0 mi SSE 5.8 mph - 0.00 in Rain Light Rain
11:52 PM 41.0 °F 34.3 °F 14.0 °F 33% 30.18 in 10.0 mi SSE 11.5 mph 21.9 mph 0.00 in   Overcast